Plattsmouth, NE

2:37 AM CST on November 23, 2017 (GMT -0600)
Plattsmouth Municipal

Weather History for KPMV - December, 2013

Change the Weather History Date:

Friday, December 6, 2013

  Actual Average (KOFF) Record (KOFF)
Temperature  
Mean Temperature 7 °F -  
Max Temperature 13 °F 40 °F 53 °F (2001)
Min Temperature 1 °F 23 °F -5 °F (2005)
Degree Days  
Heating Degree Days 58    
Moisture  
Dew Point -6 °F    
Average Humidity 58    
Maximum Humidity 73    
Minimum Humidity 42    
Precipitation  
Precipitation 0.00 in - - ()
Sea Level Pressure  
Sea Level Pressure 30.56 in    
Wind  
Wind Speed 11 mph (NNW)    
Max Wind Speed 16 mph    
Max Gust Speed 21 mph    
Visibility 10 miles    
Events      
Averages and records for this station are not official NWS values.
T = Trace of Precipitation, MM = Missing Value Source: NWS Daily Summary

Daily Weather History Graph

Daily Weather History Graph

Search for Another Location

Airport or City:

Trip Planner

Search our weather history database for the weather conditions in past years. The results will help you decide how hot, cold, wet, or windy it might be!

Date:

Astronomy

Dec. 06, 2013 Rise Set
Actual Time 7:34 AM CST 4:55 PM CST
Civil Twilight 7:03 AM CST 5:26 PM CST
Nautical Twilight 6:29 AM CST 6:00 PM CST
Astronomical Twilight 5:55 AM CST 6:33 PM CST
Moon 10:39 AM CST (12/6) 9:29 PM CST (12/6)
Length of Visible Light 10h 22m
Length of Day
9h 21m
Waxing Crescent, 19% of the Moon is Illuminated
Dec 6
Waxing Crescent
Dec 9
First Quarter
Dec 17
Full
Dec 25
Last Quarter
Jan 1
New

Hourly Weather History & Observations

Time (CST) Temp. Windchill Dew Point Humidity Pressure Visibility Wind Dir Wind Speed Gust Speed Precip Events Conditions
5:35 AM 4.1 °F -12.0 °F -6.7 °F 61% 30.48 in 10.0 mi NNW 11.5 mph - N/A   Overcast
5:55 AM 3.2 °F -14.6 °F -7.1 °F 62% 30.49 in 10.0 mi NW 13.8 mph - N/A   Mostly Cloudy
6:15 AM 2.3 °F -12.4 °F -6.9 °F 66% 30.49 in 10.0 mi NW 9.2 mph - N/A   Scattered Clouds
6:35 AM 2.1 °F -15.2 °F -7.1 °F 66% 30.50 in 10.0 mi NW 12.7 mph 16.1 mph N/A   Clear
6:55 AM 1.8 °F -14.0 °F -7.6 °F 65% 30.50 in 10.0 mi NNW 10.4 mph - N/A   Scattered Clouds
7:15 AM 1.4 °F -16.9 °F -7.6 °F 66% 30.49 in 10.0 mi NW 13.8 mph - N/A   Scattered Clouds
7:35 AM 1.0 °F -17.3 °F -7.8 °F 66% 30.48 in 10.0 mi NW 13.8 mph - N/A   Clear
7:55 AM 1.0 °F -18.0 °F -7.6 °F 67% 30.49 in 10.0 mi NW 15.0 mph - N/A   Clear
8:15 AM 1.2 °F -16.4 °F -7.8 °F 66% 30.50 in 10.0 mi NNW 12.7 mph - N/A   Clear
8:35 AM 1.4 °F -18.2 °F -8.1 °F 64% 30.51 in 10.0 mi NNW 16.1 mph 19.6 mph N/A   Clear
8:55 AM 1.6 °F -15.9 °F -8.5 °F 63% 30.52 in 10.0 mi NNW 12.7 mph - N/A   Clear
9:15 AM 2.8 °F -15.7 °F -8.1 °F 60% 30.53 in 10.0 mi NNW 15.0 mph 18.4 mph N/A   Clear
9:35 AM 3.6 °F -14.8 °F -8.0 °F 59% 30.53 in 10.0 mi NNW 15.0 mph - N/A   Clear
9:55 AM 3.9 °F -12.2 °F -7.8 °F 58% 30.53 in 10.0 mi NNW 11.5 mph 19.6 mph N/A   Clear
10:15 AM 5.4 °F -11.1 °F -7.4 °F 56% 30.54 in 10.0 mi NNW 12.7 mph 17.3 mph N/A   Clear
10:35 AM 6.1 °F -11.6 °F -7.6 °F 53% 30.54 in 10.0 mi NNW 15.0 mph 19.6 mph N/A   Clear
10:55 AM 7.0 °F -7.5 °F -7.2 °F 52% 30.54 in 10.0 mi NNW 10.4 mph 20.7 mph N/A   Clear
11:15 AM 8.4 °F -6.5 °F -6.5 °F 51% 30.54 in 10.0 mi NNW 11.5 mph 18.4 mph N/A   Clear
11:35 AM 8.8 °F -6.8 °F -6.7 °F 50% 30.54 in 10.0 mi NNW 12.7 mph - N/A   Clear
11:55 AM 9.9 °F -4.0 °F -6.5 °F 48% 30.54 in 10.0 mi NNW 10.4 mph 18.4 mph N/A   Clear
12:15 PM 10.0 °F -1.9 °F -6.3 °F 48% 30.53 in 10.0 mi NNW 8.1 mph 17.3 mph N/A   Clear
12:35 PM 10.8 °F -2.8 °F -6.3 °F 46% 30.54 in 10.0 mi NNW 10.4 mph - N/A   Clear
12:55 PM 11.8 °F 1.3 °F -6.5 °F 44% 30.53 in 10.0 mi NNW 6.9 mph - N/A   Scattered Clouds
1:15 PM 11.8 °F -1.5 °F -6.0 °F 45% 30.53 in 10.0 mi NNW 10.4 mph - N/A   Scattered Clouds
1:35 PM 12.4 °F 0.0 °F -6.0 °F 44% 30.54 in 10.0 mi NNW 9.2 mph - N/A   Scattered Clouds
1:55 PM 12.6 °F 0.2 °F -6.0 °F 43% 30.52 in 10.0 mi North 9.2 mph - N/A   Mostly Cloudy
2:15 PM 13.3 °F -1.1 °F -5.8 °F 42% 30.52 in 10.0 mi NW 12.7 mph 16.1 mph N/A   Overcast
2:35 PM 12.9 °F 0.7 °F -5.8 °F 43% 30.51 in 10.0 mi NNW 9.2 mph - N/A   Mostly Cloudy
2:55 PM 13.5 °F 0.5 °F -6.0 °F 42% 30.51 in 10.0 mi NNW 10.4 mph - N/A   Mostly Cloudy
3:15 PM 13.3 °F 0.3 °F -6.2 °F 42% 30.52 in 10.0 mi NW 10.4 mph 16.1 mph N/A   Mostly Cloudy
3:35 PM 12.2 °F 1.7 °F -6.0 °F 44% 30.53 in 10.0 mi NNW 6.9 mph - N/A   Mostly Cloudy
3:55 PM 12.0 °F -0.4 °F -6.0 °F 44% 30.53 in 10.0 mi NNW 9.2 mph - N/A   Scattered Clouds
4:15 PM 11.7 °F 0.0 °F -6.0 °F 45% 30.54 in 10.0 mi NNW 8.1 mph - N/A   Clear
4:35 PM 10.9 °F -1.8 °F -5.6 °F 47% 30.54 in 10.0 mi NNW 9.2 mph - N/A   Clear
5:55 PM 8.4 °F -2.8 °F -4.9 °F 55% 30.57 in 10.0 mi NNW 6.9 mph - N/A   Clear
6:15 PM 8.2 °F -1.8 °F -4.4 °F 57% 30.58 in 10.0 mi NNW 5.8 mph - N/A   Clear
6:35 PM 6.8 °F -5.9 °F -4.4 °F 60% 30.59 in 10.0 mi NW 8.1 mph - N/A   Clear
6:55 PM 6.3 °F -4.1 °F -4.5 °F 61% 30.60 in 10.0 mi NW 5.8 mph - N/A   Clear
7:15 PM 5.9 °F -3.0 °F -4.9 °F 61% 30.61 in 10.0 mi NNW 4.6 mph - N/A   Clear
7:35 PM 5.2 °F -5.4 °F -4.9 °F 63% 30.62 in 10.0 mi NNW 5.8 mph - N/A   Clear
7:55 PM 5.2 °F -5.4 °F -4.5 °F 64% 30.63 in 10.0 mi NNW 5.8 mph - N/A   Clear
8:15 PM 4.5 °F -6.3 °F -4.7 °F 66% 30.63 in 10.0 mi NNW 5.8 mph - N/A   Clear
8:35 PM 5.5 °F -7.4 °F -4.0 °F 65% 30.64 in 10.0 mi NNW 8.1 mph - N/A   Clear
8:55 PM 5.0 °F -10.0 °F -4.2 °F 66% 30.64 in 10.0 mi NNW 10.4 mph - N/A   Clear
9:15 PM 4.6 °F -7.4 °F -4.4 °F 66% 30.65 in 10.0 mi NNW 6.9 mph - N/A   Clear
9:35 PM 3.7 °F -9.6 °F -4.7 °F 68% 30.65 in 10.0 mi NW 8.1 mph - N/A   Clear
9:55 PM 3.2 °F -12.2 °F -4.4 °F 71% 30.65 in 10.0 mi NW 10.4 mph - N/A   Clear
10:15 PM 2.8 °F -11.7 °F -4.9 °F 70% 30.66 in 10.0 mi NW 9.2 mph - N/A   Clear
10:35 PM 2.7 °F -12.9 °F -4.9 °F 71% 30.66 in 10.0 mi NW 10.4 mph - N/A   Clear
10:55 PM 2.1 °F -11.6 °F -5.3 °F 71% 30.67 in 10.0 mi NW 8.1 mph - N/A   Clear
11:15 PM 1.6 °F -11.0 °F -5.4 °F 72% 30.67 in 10.0 mi NNW 6.9 mph - N/A   Clear
11:35 PM 1.4 °F -12.5 °F -5.4 °F 73% 30.67 in 10.0 mi NW 8.1 mph - N/A   Clear
11:55 PM 1.2 °F -8.5 °F -5.8 °F 72% 30.68 in 10.0 mi NW 4.6 mph - N/A   Clear